Theta_e
300 301 302 302 301 301 302 302 302 301 301 300 299 298 299 300 301 302 308 308 307 306 302 302 303 303 300 300 299 298 298 296 296 295 296 295 296 296 298 299 301 307 312
300 302 301 299 300 300 301 301 301 301 301 299 299 300 298 299 301 301 302 306 306 304 303 301 301 301 300 299 299 299 297 296 297 295 293 291 294 295 297 299 299 299 302
299 301 302 300 299 300 301 301 301 301 301 301 300 299 298 298 298 299 300 302 305 305 303 301 301 299 299 298 297 297 296 294 296 296 294 290 288 294 296 297 298 298 299
300 300 299 299 300 301 300 301 302 302 302 301 299 298 300 299 301 302 299 301 304 304 303 302 301 299 299 298 298 298 297 296 293 295 298 296 294 290 289 295 297 299 300
299 298 298 299 300 302 302 302 302 303 304 303 301 299 299 300 301 298 297 298 300 302 303 302 301 299 299 297 295 295 293 294 293 293 292 292 293 292 290 288 291 295 298
298 300 300 300 301 302 302 303 303 303 304 303 303 300 299 300 298 299 298 298 296 296 298 298 296 296 295 295 294 294 292 292 293 292 292 292 289 289 289 288 288 289 292
299 299 299 300 301 300 301 302 302 304 305 303 302 302 301 301 299 299 299 298 296 295 294 295 295 294 294 294 293 295 295 293 292 290 290 292 292 293 292 290 289 289 292
299 299 300 301 301 302 301 302 303 302 302 302 302 301 301 300 300 298 297 294 295 294 294 294 294 295 295 294 295 296 295 294 291 291 291 292 292 293 292 291 289 287 288
299 300 301 301 300 300 300 301 300 301 302 300 297 295 294 295 292 292 292 293 293 294 293 295 295 296 297 297 294 292 291 292 291 290 290 291 292 292 293 292 291 288 284
299 300 300 301 301 300 301 301 301 301 300 296 294 293 291 292 292 291 291 291 293 295 296 297 297 297 295 294 293 291 290 290 290 290 289 290 291 291 292 292 291 290 288
297 299 301 303 303 303 302 301 299 299 294 293 293 292 290 291 290 290 290 291 292 293 294 294 293 293 293 292 290 289 289 288 288 288 288 288 289 289 289 289 289 289 288
298 299 300 301 300 300 299 299 299 294 293 293 292 291 290 289 288 289 290 291 291 292 292 292 292 291 291 290 289 288 288 286 285 286 286 287 288 286 286 286 286 286 286
298 299 299 300 300 299 299 299 298 293 294 292 290 289 288 287 288 288 289 290 290 290 290 290 290 290 290 289 288 287 286 286 286 286 285 285 285 283 283 283 283 284 286
299 299 298 298 299 298 298 298 294 294 294 293 289 288 287 287 288 288 289 290 290 289 289 289 290 290 289 287 287 286 284 283 283 283 283 283 283 282 281 282 281 283 282
298 298 297 297 298 298 298 295 295 295 294 291 289 289 290 290 290 289 289 291 290 289 289 288 286 285 285 286 284 283 282 281 281 282 282 282 283 286 286 284 282 282 281
298 298 299 299 298 298 296 295 294 294 295 294 295 295 294 293 292 293 293 292 289 288 286 284 283 282 284 287 287 285 281 281 281 280 281 281 283 283 284 285 285 284 280
297 297 298 298 297 295 294 293 293 295 296 296 295 295 295 294 293 292 291 287 284 283 282 281 281 281 281 286 286 286 282 281 280 280 279 280 281 282 281 283 284 284 285
298 298 297 296 295 294 293 293 293 294 294 294 294 293 292 290 288 286 284 282 281 280 280 280 280 280 281 285 285 284 281 280 280 280 280 280 280 281 281 281 280 281 281
298 298 295 294 293 291 292 292 291 292 290 286 286 286 286 286 285 282 280 280 279 279 279 280 279 280 280 283 283 282 278 278 279 281 281 282 282 283 285 282 281 281 281
296 293 293 292 291 291 291 285 284 285 285 287 287 287 287 285 282 281 280 279 278 278 279 280 279 280 277 281 282 281 280 278 278 279 280 282 281 283 283 281 281 280 281
292 292 292 291 291 293 289 284 284 284 287 287 287 286 285 283 282 280 279 278 278 277 272 271 274 276 278 278 281 282 280 279 278 279 279 280 282 283 283 283 281 281 282
291 291 290 290 293 287 285 284 283 286 287 286 285 284 283 283 282 279 278 278 276 273 272 269 271 274 273 279 281 282 281 281 279 279 280 281 283 283 284 283 283 283 282
289 290 289 291 290 286 286 284 284 285 284 283 282 282 282 281 280 278 277 277 275 272 271 274 272 275 277 277 280 280 281 282 281 281 281 282 281 281 281 282 282 281 281
288 289 291 289 287 285 284 284 285 284 282 281 281 281 280 279 278 278 278 276 271 270 275 273 274 276 276 276 277 279 280 282 282 279 278 278 278 276 277 278 279 280 280
288 290 290 289 287 285 284 284 284 283 282 281 281 280 279 277 278 278 277 276 275 274 273 273 277 274 273 276 281 280 280 281 280 278 275 275 275 275 276 276 277 278 280
290 290 290 286 285 284 283 284 283 282 281 281 280 276 275 274 277 277 277 281 280 281 281 281 278 277 279 281 280 281 281 281 281 278 273 273 273 273 274 274 274 276 277
Wind_Speed
0 6 8 10 10 8 8 7 6 5 3 1 1 2 4 3 4 5 8 7 7 7 7 5 5 5 5 6 5 3 3 2 0 2 4 3 5 5 5 3 4 6 6
6 7 6 3 4 7 7 7 7 6 5 3 4 4 4 4 4 3 6 8 9 8 7 7 6 6 4 6 6 5 2 2 1 1 0 4 6 3 4 5 4 6 4
8 6 5 6 4 6 8 8 8 8 8 8 2 2 1 3 2 4 4 8 11 11 10 9 7 7 6 6 4 4 4 3 1 2 2 3 4 8 3 4 5 6 4
4 2 4 5 7 9 5 6 7 8 7 7 5 8 8 9 9 9 5 6 11 12 10 8 7 6 4 5 4 4 2 3 1 2 2 3 3 5 12 2 5 5 6
5 4 3 3 7 6 7 7 6 6 8 5 7 6 9 10 9 4 7 7 7 9 8 8 8 8 7 6 7 3 4 2 3 3 1 2 2 3 5 12 10 9 5
3 5 4 3 3 4 2 3 5 7 8 8 9 8 10 13 7 9 7 4 3 2 3 7 7 6 4 5 6 5 2 3 4 3 4 3 4 7 5 9 10 11 9
6 4 5 4 5 5 6 4 4 7 7 7 9 9 11 11 11 11 6 4 4 5 6 7 6 5 6 6 6 4 5 6 5 5 4 5 6 6 7 7 9 8 7
4 1 6 6 6 7 8 7 7 8 10 8 10 7 7 5 5 5 2 3 5 5 7 8 7 7 8 6 5 7 6 7 6 7 6 6 7 7 8 7 7 11 10
7 8 6 6 7 7 6 7 8 10 10 10 5 4 3 3 3 5 6 6 9 8 9 9 8 7 7 8 10 4 6 5 5 6 6 7 7 6 7 6 6 8 11
8 7 6 5 2 3 4 6 9 11 10 8 3 1 3 4 5 6 7 7 6 6 6 9 4 6 8 6 7 6 5 5 5 5 6 8 7 7 6 6 7 6 8
5 5 5 5 6 6 6 7 7 7 7 6 3 5 4 4 5 6 6 6 4 5 6 6 6 6 7 6 5 6 6 6 7 6 8 9 9 7 5 5 5 6 5
4 4 2 5 7 7 6 6 6 6 6 5 6 6 4 5 6 6 7 6 5 3 4 4 5 5 5 5 5 6 6 6 7 8 8 10 8 8 5 4 6 5 6
2 3 5 7 7 7 7 7 6 6 7 5 7 6 6 5 6 5 5 5 4 2 3 2 4 5 6 6 6 6 7 8 9 8 7 8 5 5 3 3 4 4 6
4 6 7 7 7 7 7 6 5 6 7 7 4 3 2 3 3 4 3 2 1 3 4 5 5 5 6 6 6 6 5 5 5 5 6 6 6 7 6 6 6 6 6
7 7 7 6 6 7 7 5 6 6 5 2 4 4 4 3 3 1 3 7 6 4 3 4 5 5 4 4 3 3 4 5 6 6 7 8 10 18 15 9 10 10 10
9 11 9 8 9 8 6 5 6 7 6 2 4 4 4 4 5 6 9 8 4 3 3 4 4 6 4 4 4 4 5 6 9 10 10 10 18 18 22 21 21 16 12
13 12 10 9 7 5 5 7 6 6 3 2 1 3 5 6 10 6 5 4 2 2 4 5 5 5 3 7 10 12 8 9 9 10 10 11 10 16 12 16 20 20 22
14 13 9 6 5 5 7 7 5 4 4 3 4 4 3 4 5 5 3 2 2 4 4 5 5 4 5 9 15 16 10 9 10 11 12 12 13 13 15 14 13 13 14
13 8 5 4 5 7 7 5 7 6 6 7 6 5 6 6 3 4 6 4 4 4 4 4 5 5 6 13 17 16 7 9 11 10 11 13 14 20 23 16 14 16 14
4 5 6 5 6 7 5 7 6 6 6 5 5 4 4 4 4 4 5 3 3 4 3 4 5 8 7 14 19 16 7 8 9 11 12 19 18 23 24 17 15 15 14
4 6 5 6 5 4 6 5 4 4 3 4 4 4 4 5 5 4 3 4 5 4 4 4 5 7 8 10 19 20 9 8 10 10 10 10 21 23 24 23 12 14 13
7 6 4 4 4 4 6 4 2 3 4 5 5 5 5 5 4 5 5 5 4 3 5 5 6 5 7 14 15 20 20 19 12 11 9 10 19 21 18 16 17 20 14
6 6 4 3 3 4 4 2 3 4 4 4 5 5 5 4 4 5 5 3 2 2 4 5 5 7 6 6 15 19 22 21 11 8 12 19 18 17 11 13 14 10 8
5 4 6 5 4 2 3 4 2 3 4 4 5 4 5 5 5 4 3 2 3 3 4 5 6 6 6 7 7 8 7 14 5 7 7 8 9 8 7 7 7 6 7
4 4 5 6 5 3 3 3 2 2 3 3 3 4 3 4 4 4 3 2 4 3 3 4 4 6 8 8 15 13 8 6 5 5 4 5 7 7 7 7 7 6 7
3 6 5 3 4 5 5 4 3 1 0 3 3 2 3 3 3 4 4 8 7 10 12 12 6 7 14 17 18 17 14 15 13 5 2 6 7 7 7 8 8 7 9
Wind_Direction
259 67 104 126 128 137 140 151 163 199 148 168 187 232 232 230 238 213 212 215 209 208 183 192 198 196 185 202 201 196 221 288 212 356 318 297 285 289 293 274 284 301 293
85 106 113 119 150 163 168 177 198 203 204 185 203 188 193 223 223 217 207 214 215 208 200 190 197 191 180 196 192 183 181 244 171 200 133 326 308 286 305 299 296 286 297
122 128 148 179 175 192 201 206 210 211 221 222 227 245 316 297 264 244 228 212 204 212 204 202 187 191 187 190 190 156 156 189 284 121 172 332 273 315 297 290 284 300 305
71 111 175 181 211 232 241 241 233 232 234 228 224 216 231 237 237 235 218 221 204 211 206 202 192 178 154 133 129 101 102 108 157 333 95 198 201 301 310 283 307 298 308
133 141 161 189 224 243 238 246 270 287 273 250 233 235 245 248 253 243 223 223 221 212 191 168 155 146 137 131 123 105 107 135 183 172 148 290 281 250 278 300 308 297 285
191 180 140 139 76 28 6 338 302 293 294 293 277 241 243 255 251 250 233 207 165 129 102 117 107 86 90 109 81 67 20 7 357 339 321 261 265 287 281 291 293 285 293
217 249 235 95 90 53 42 36 5 310 302 296 287 274 257 256 255 255 241 165 137 103 124 133 115 100 96 63 47 28 9 296 283 261 255 265 264 271 272 275 284 278 293
219 311 76 76 33 31 29 5 14 333 319 302 293 297 288 268 263 272 182 121 108 92 86 62 56 57 36 32 356 344 299 249 244 257 268 270 272 265 266 259 278 289 292
24 70 85 50 28 21 355 347 336 325 323 316 313 321 349 30 98 85 90 104 109 111 98 85 56 31 352 308 267 250 260 251 257 259 258 259 266 250 258 256 255 267 286
53 40 54 58 344 256 281 335 343 326 318 310 282 286 114 122 115 104 108 104 110 114 94 43 349 250 237 245 256 255 258 263 272 267 261 261 262 254 254 258 266 260 271
74 84 54 13 344 313 304 298 287 299 316 305 239 224 190 142 118 111 109 110 119 137 117 188 216 233 240 244 254 266 278 269 271 266 269 267 265 265 259 258 259 264 266
69 42 335 289 294 283 283 305 309 328 328 289 236 225 187 143 120 117 117 115 107 105 167 223 240 262 270 268 268 265 275 263 266 267 263 269 270 270 252 253 263 269 276
253 279 294 323 308 315 316 317 317 320 312 271 235 214 186 160 147 142 133 128 149 190 252 284 278 275 274 271 264 262 271 268 272 278 280 277 284 281 275 262 268 267 285
314 297 304 299 289 287 287 310 316 320 315 310 235 263 170 147 138 137 137 142 234 251 261 267 283 290 295 298 289 289 306 309 301 300 287 276 262 253 254 261 256 260 263
263 274 285 295 298 308 299 308 316 308 300 316 144 135 141 140 151 78 22 331 279 280 296 307 318 317 300 288 10 19 342 311 294 284 278 276 266 272 268 271 272 271 270
291 318 311 311 301 292 304 315 301 301 304 194 140 128 103 101 54 344 252 252 292 330 338 356 323 309 312 328 335 321 282 280 282 283 283 276 279 277 274 270 269 262 260
312 307 289 274 274 278 281 291 300 304 31 93 209 222 205 199 227 254 282 347 328 6 341 314 319 306 293 294 312 315 299 287 281 276 275 275 271 274 269 269 268 267 262
303 296 285 296 309 294 295 291 292 311 274 329 322 331 338 337 354 355 360 347 349 336 331 319 314 321 308 311 314 312 298 284 277 273 272 270 270 267 271 269 263 261 258
288 298 302 299 300 291 284 305 330 316 68 61 64 46 32 2 340 340 1 345 353 333 319 341 346 332 295 305 313 312 296 286 282 279 276 273 274 274 277 273 260 266 256
332 358 325 302 300 316 36 68 61 50 42 26 25 20 8 11 13 358 357 327 312 323 357 2 340 319 297 306 315 316 298 294 288 285 280 279 276 275 275 273 268 264 257
343 324 318 309 305 330 58 68 74 68 18 3 14 26 12 358 10 358 334 323 337 5 2 330 307 298 296 298 307 311 310 293 291 286 289 284 284 283 277 276 271 262 269
335 319 332 317 348 78 109 138 117 51 23 21 14 357 350 351 360 354 334 352 24 5 314 307 300 283 281 291 299 311 307 302 295 289 286 286 297 309 312 274 258 267 265
302 303 291 290 359 181 222 163 51 38 29 20 356 348 355 354 345 345 347 18 339 299 301 301 305 304 297 291 300 304 302 302 301 304 312 321 327 321 314 311 299 283 267
304 301 316 299 283 153 93 112 96 47 41 0 346 348 349 341 342 350 356 307 295 296 304 309 307 305 311 312 306 293 300 305 311 314 316 314 313 307 304 318 315 291 262
328 341 18 322 299 152 206 180 149 92 24 353 335 329 328 338 331 326 287 279 278 237 304 287 311 332 319 310 321 334 322 337 323 322 323 336 339 339 340 338 334 335 338
358 316 293 261 208 219 226 210 193 179 56 329 317 288 296 307 312 309 310 319 336 334 336 340 354 328 318 336 347 344 350 3 358 354 323 355 345 344 345 347 343 345 344